Tracking 25934 objects as of 11-Aug-2022
HD Live streaming from Space Station
objects crossing your sky now

CZ-4B DEB

Track CZ-4B DEB now!
10-day predictions


NORAD ID: 41041
Int'l Code: 2015-064D
Perigee: 453.5 km
Apogee: 682.3 km
Inclination: 97.2 °
Period: 95.9 minutes
Semi major axis: 6938 km
RCS: Unknown
Launch date: November 8, 2015
Source: People's Republic of China (PRC)
Launch site: Taiyaun Space Center, China (TSC)

Note: This is SATELLITE DEBRIS
aabbcc
Your satellite tracking list
Your tracking list is empty




NASA's NSSDC Master Catalog

Two Line Element Set (TLE):
1 41041U 15064D   22222.30466021  .00010280  00000-0  58743-3 0  9999
2 41041  97.2337 175.0286 0164877 202.2167 157.1859 15.01993175365488
Source of the keplerian elements: AFSPC